Location: *
(58.7167°N, 26.1833°E)
Time: 12:52:26
(UTC+00:00)

Cosmos 2218 Rocket - Pass Details

Date: 25 August 2019
Orbit: 957 x 1005 km, 82.9° (Epoch: 21 September)

Event Time Altitude Azimuth Distance (km) Brightness Sun altitude
Rises 20:06:59 0° 346° (NNW) 3,727 8.5 -15.8°
Reaches altitude 10° 20:09:37 10° 352° (N) 2,780 7.4 -16.0°
Maximum altitude 20:15:50 51° 67° (ENE) 1,255 4.5 -16.4°
Enters shadow 20:19:36 24° 133° (SE) 1,961 5.0 -16.7°
